South Haven, MI

9:13 PM EDT on July 20, 2017 (GMT -0400)
South Haven

Weather History for KLWA - June, 2013

Change the Weather History Date:

Monday, June 17, 2013

  Actual Average (KBEH) Record (KBEH)
Temperature  
Mean Temperature 70 °F -  
Max Temperature 83 °F 78 °F 95 °F (1992)
Min Temperature 57 °F 55 °F 39 °F (1948)
Cooling Degree Days 5    
Growing Degree Days 20 (Base 50)    
Moisture  
Dew Point 55 °F    
Average Humidity 66    
Maximum Humidity 97    
Minimum Humidity 25    
Precipitation  
Precipitation 0.00 in - - ()
Sea Level Pressure  
Sea Level Pressure 29.91 in    
Wind  
Wind Speed 3 mph (WSW)    
Max Wind Speed 13 mph    
Max Gust Speed 22 mph    
Visibility 10 miles    
Events Rain    
Averages and records for this station are not official NWS values.
T = Trace of Precipitation, MM = Missing Value Source: NWS Daily Summary

Daily Weather History Graph

Daily Weather History Graph

Search for Another Location

Airport or City:

Trip Planner

Search our weather history database for the weather conditions in past years. The results will help you decide how hot, cold, wet, or windy it might be!

Date:

Astronomy

Jun. 17, 2013 Rise Set
Actual Time 6:07 AM EDT 9:24 PM EDT
Civil Twilight 5:32 AM EDT 9:59 PM EDT
Nautical Twilight 4:48 AM EDT 10:44 PM EDT
Astronomical Twilight 3:53 AM EDT 11:39 PM EDT
Moon 2:56 PM EDT (6/17) 1:49 AM EDT (6/17)
Length of Visible Light 16h 26m
Length of Day
15h 16m
First Quarter, 60% of the Moon is Illuminated
Jun 17
First Quarter
Jun 23
Full
Jun 30
Last Quarter
Jul 8
New
Jul 15
First Quarter

Hourly Weather History & Observations

Time (EDT) Temp. Heat Index Dew Point Humidity Pressure Visibility Wind Dir Wind Speed Gust Speed Precip Events Conditions
12:15 AM 61.5 °F - 59.7 °F 94% 29.92 in 10.0 mi Calm Calm - N/A   Clear
12:35 AM 61.0 °F - 59.4 °F 94% 29.92 in 10.0 mi Calm Calm - N/A   Scattered Clouds
12:55 AM 61.0 °F - 59.0 °F 93% 29.92 in 10.0 mi Calm Calm - N/A   Scattered Clouds
1:16 AM 60.8 °F - 58.8 °F 93% 29.92 in 10.0 mi Calm Calm - N/A   Clear
1:35 AM 60.3 °F - 57.9 °F 92% 29.91 in 10.0 mi Calm Calm - N/A   Clear
1:55 AM 60.1 °F - 57.7 °F 92% 29.91 in 10.0 mi Calm Calm - N/A   Clear
2:15 AM 59.4 °F - 57.4 °F 93% 29.91 in 10.0 mi Calm Calm - N/A   Clear
2:35 AM 59.5 °F - 57.4 °F 93% 29.91 in 10.0 mi Calm Calm - N/A   Clear
2:55 AM 58.6 °F - 57.2 °F 95% 29.91 in 10.0 mi Calm Calm - N/A   Clear
3:15 AM 59.0 °F - 57.2 °F 94% 29.91 in 10.0 mi Calm Calm - N/A   Clear
3:35 AM 58.1 °F - 56.7 °F 95% 29.90 in 10.0 mi Calm Calm - N/A   Clear
3:56 AM 57.7 °F - 56.5 °F 96% 29.90 in 10.0 mi Calm Calm - N/A   Clear
4:15 AM 57.7 °F - 56.1 °F 94% 29.90 in 10.0 mi Calm Calm - N/A   Clear
4:35 AM 57.7 °F - 56.3 °F 95% 29.90 in 10.0 mi Calm Calm - N/A   Clear
4:55 AM 57.2 °F - 55.8 °F 95% 29.91 in 10.0 mi Calm Calm - N/A   Clear
5:15 AM 57.2 °F - 56.1 °F 96% 29.92 in 10.0 mi Calm Calm - N/A   Clear
5:36 AM 61.2 °F - 59.9 °F 96% 29.92 in 10.0 mi North 4.6 mph - N/A   Clear
5:55 AM 62.1 °F - 59.9 °F 93% 29.92 in 10.0 mi Calm Calm - N/A   Clear
6:15 AM 59.5 °F - 58.3 °F 96% 29.92 in 5.0 mi Calm Calm - N/A   Clear
6:36 AM 59.0 °F - 58.1 °F 97% 29.92 in 2.0 mi Calm Calm - N/A   Clear
6:55 AM 59.0 °F - 58.3 °F 97% 29.92 in 3.0 mi Calm Calm - N/A   Clear
7:15 AM 60.1 °F - 59.2 °F 97% 29.92 in 4.0 mi Calm Calm - N/A   Clear
7:36 AM 62.4 °F - 60.8 °F 94% 29.92 in 7.0 mi Calm Calm - N/A   Clear
7:55 AM 64.0 °F - 61.2 °F 90% 29.92 in 7.0 mi Calm Calm - N/A   Clear
8:15 AM 65.3 °F - 62.1 °F 89% 29.92 in 10.0 mi Calm Calm - N/A   Clear
8:36 AM 68.0 °F - 63.3 °F 85% 29.93 in 10.0 mi Calm Calm - N/A   Clear
8:55 AM 70.0 °F - 63.1 °F 79% 29.92 in 10.0 mi SSE 3.5 mph - N/A   Clear
9:15 AM 72.0 °F - 63.5 °F 75% 29.93 in 10.0 mi Calm Calm - N/A   Clear
9:35 AM 74.3 °F - 61.7 °F 65% 29.94 in 10.0 mi Calm Calm - N/A   Clear
9:55 AM 75.9 °F - 61.0 °F 60% 29.94 in 10.0 mi SSW 3.5 mph - N/A   Clear
10:15 AM 77.9 °F - 58.8 °F 52% 29.93 in 10.0 mi SSW 4.6 mph - N/A   Clear
10:35 AM 79.9 °F - 53.4 °F 40% 29.94 in 10.0 mi West 8.1 mph - N/A   Clear
10:55 AM 80.1 °F - 50.4 °F 35% 29.94 in 10.0 mi WSW 5.8 mph - N/A   Clear
11:15 AM 80.2 °F - 50.5 °F 35% 29.93 in 10.0 mi WSW 6.9 mph - N/A   Clear
11:35 AM 81.0 °F - 49.6 °F 33% 29.93 in 10.0 mi WSW 8.1 mph - N/A   Clear
11:55 AM 81.5 °F - 48.9 °F 32% 29.93 in 10.0 mi WSW 9.2 mph - N/A   Clear
12:15 PM 81.3 °F - 47.5 °F 30% 29.92 in 10.0 mi SW 10.4 mph - N/A   Clear
12:35 PM 81.5 °F - 47.8 °F 31% 29.92 in 10.0 mi WSW 10.4 mph 16.1 mph N/A   Clear
12:55 PM 81.3 °F - 48.9 °F 32% 29.92 in 10.0 mi WSW 6.9 mph - N/A   Clear
1:15 PM 80.8 °F - 48.9 °F 33% 29.92 in 10.0 mi WSW 10.4 mph - N/A   Clear
1:35 PM 81.7 °F - 49.6 °F 33% 29.92 in 10.0 mi WSW 10.4 mph - N/A   Clear
1:55 PM 82.0 °F - 49.8 °F 32% 29.92 in 10.0 mi West 9.2 mph - N/A   Clear
2:15 PM 82.6 °F - 46.2 °F 28% 29.91 in 10.0 mi SW 8.1 mph - N/A   Clear
2:35 PM 82.6 °F - 43.7 °F 25% 29.91 in 10.0 mi SW 10.4 mph - N/A   Clear
2:55 PM 82.8 °F - 45.1 °F 27% 29.91 in 10.0 mi SW 11.5 mph 17.3 mph N/A   Clear
3:16 PM 82.6 °F - 45.9 °F 28% 29.91 in 10.0 mi SW 10.4 mph - N/A   Clear
3:35 PM 82.6 °F - 44.2 °F 26% 29.90 in 10.0 mi SW 11.5 mph 18.4 mph N/A   Clear
3:55 PM 82.8 °F - 47.1 °F 29% 29.90 in 10.0 mi SW 11.5 mph 19.6 mph N/A   Clear
4:16 PM 83.1 °F - 49.5 °F 31% 29.90 in 10.0 mi WSW 10.4 mph 21.9 mph N/A   Clear
4:35 PM 83.3 °F - 49.6 °F 31% 29.89 in 10.0 mi WSW 9.2 mph - N/A   Clear
4:55 PM 83.1 °F - 50.0 °F 32% 29.89 in 10.0 mi WSW 12.7 mph 17.3 mph N/A   Clear
5:15 PM 83.3 °F - 50.7 °F 32% 29.88 in 10.0 mi WSW 8.1 mph - N/A   Clear
5:35 PM 83.3 °F - 51.8 °F 34% 29.88 in 10.0 mi WSW 9.2 mph - N/A   Clear
5:55 PM 82.8 °F - 50.9 °F 33% 29.88 in 10.0 mi WSW 8.1 mph - N/A   Clear
6:15 PM 83.3 °F - 52.9 °F 35% 29.87 in 10.0 mi West 9.2 mph - N/A   Clear
6:35 PM 82.4 °F 81.4 °F 53.8 °F 37% 29.86 in 10.0 mi SW 8.1 mph - N/A   Clear
6:55 PM 81.5 °F 80.9 °F 54.5 °F 39% 29.85 in 10.0 mi WSW 3.5 mph - N/A   Clear
7:15 PM 81.5 °F 81.0 °F 54.9 °F 40% 29.86 in 10.0 mi WSW 3.5 mph - N/A   Clear
7:35 PM 80.6 °F 80.5 °F 55.4 °F 42% 29.87 in 10.0 mi WSW 3.5 mph - N/A   Clear
7:55 PM 78.8 °F - 56.3 °F 46% 29.87 in 10.0 mi Calm Calm - N/A   Clear
8:15 PM 73.8 °F - 58.5 °F 59% 29.90 in 10.0 mi NW 11.5 mph - N/A   Scattered Clouds
8:34 PM 67.5 °F - 57.0 °F 69% 29.93 in 7.0 mi WNW 12.7 mph 18.4 mph N/A Rain Rain
8:55 PM 64.8 °F - 60.4 °F 86% 29.91 in 7.0 mi Calm Calm - N/A Rain Light Rain
9:15 PM 64.8 °F - 61.0 °F 88% 29.89 in 10.0 mi Calm Calm - N/A   Mostly Cloudy
9:35 PM 64.4 °F - 59.9 °F 85% 29.89 in 10.0 mi North 5.8 mph - N/A   Scattered Clouds
9:55 PM 63.1 °F - 59.2 °F 87% 29.89 in 10.0 mi NNE 4.6 mph - N/A   Clear
10:15 PM 63.3 °F - 57.9 °F 83% 29.90 in 10.0 mi North 5.8 mph - N/A   Clear
10:35 PM 63.7 °F - 57.2 °F 79% 29.92 in 10.0 mi WNW 3.5 mph - N/A   Clear
10:55 PM 62.2 °F - 57.4 °F 84% 29.94 in 10.0 mi WSW 8.1 mph - N/A   Scattered Clouds
11:15 PM 61.0 °F - 57.6 °F 88% 29.94 in 10.0 mi Calm Calm - N/A   Scattered Clouds
11:35 PM 60.8 °F - 58.5 °F 92% 29.94 in 10.0 mi Calm Calm - N/A   Scattered Clouds
11:56 PM 60.3 °F - 58.6 °F 94% 29.94 in 10.0 mi Calm Calm - N/A   Mostly Cloudy